HULIANWANG DIGUI-113

Last updated on Mon Dec 15 2025 00:02:13 GMT+0000 (Coordinated Universal Time)

1 66923U 25285J 25348.33383223 .00000086 00000+0 14434-3 0 9999 2 66923 50.0085 110.7283 0005423 301.5227 58.5148 14.06057103 1135
UTC large
Height (km)
Speed (km/s)
/
Latitude / Longitude
Inclination (degrees)
Orbital Period (minutes)
Azimuth
Elevation
Range (km)
Doppler Factor

Next 0 passes for location: London (51.5072 / 0.1276)

Sorry there are no passes over London.